DTA231 FNSA-FNLU

Flight info

Callsign DTA231
Flight time 1h 6m
Altitude 24000
Route KILBI H600 AVOVA
Aircraft B737/M-SDE2E3FGHIRWXY/LB1

Departure

Time 2026-04-30 12:17
Airport Saurimo Airport (FNSA)

Arrival

Time 2026-04-30 13:23
Airport Quatro de Fevereiro International Airport (FNLU)
Time Latitude Longitude Altitude Speed Heading
2026-04-30 12:17 -9.65536 20.22949 10516 ft 322 kts 271°
2026-04-30 12:17 -9.65506 20.20595 10776 ft 344 kts 271°
2026-04-30 12:17 -9.65469 20.18126 11421 ft 351 kts 271°
2026-04-30 12:18 -9.65428 20.15632 12220 ft 353 kts 271°
2026-04-30 12:18 -9.65385 20.13174 13057 ft 354 kts 271°
2026-04-30 12:18 -9.65339 20.10654 13836 ft 358 kts 271°
2026-04-30 12:18 -9.65290 20.08124 14512 ft 361 kts 271°
2026-04-30 12:19 -9.65241 20.05560 15180 ft 365 kts 271°
2026-04-30 12:19 -9.65190 20.02972 15852 ft 369 kts 271°
2026-04-30 12:19 -9.65139 20.00352 16526 ft 373 kts 271°
2026-04-30 12:19 -9.65087 19.97735 17176 ft 377 kts 271°
2026-04-30 12:20 -9.65034 19.95060 17841 ft 381 kts 271°
2026-04-30 12:20 -9.64980 19.92364 18448 ft 385 kts 271°
2026-04-30 12:20 -9.64925 19.89634 18971 ft 389 kts 271°
2026-04-30 12:20 -9.64870 19.86905 19490 ft 393 kts 271°
2026-04-30 12:21 -9.64813 19.84112 20011 ft 397 kts 271°
2026-04-30 12:21 -9.64756 19.81294 20509 ft 401 kts 271°
2026-04-30 12:21 -9.64698 19.78458 21067 ft 403 kts 271°
2026-04-30 12:21 -9.64639 19.75604 21637 ft 405 kts 271°
2026-04-30 12:22 -9.64580 19.72771 22108 ft 410 kts 271°
2026-04-30 12:22 -9.64520 19.69852 22554 ft 415 kts 271°
2026-04-30 12:22 -9.64459 19.66910 23012 ft 419 kts 271°
2026-04-30 12:22 -9.64397 19.63949 23508 ft 421 kts 271°
2026-04-30 12:23 -9.64334 19.60961 23906 ft 424 kts 271°
2026-04-30 12:23 -9.64272 19.57993 24312 ft 427 kts 271°
2026-04-30 12:23 -9.64208 19.54969 24693 ft 429 kts 271°
2026-04-30 12:23 -9.64144 19.51920 25076 ft 432 kts 271°
2026-04-30 12:24 -9.64079 19.48870 25468 ft 434 kts 271°
2026-04-30 12:24 -9.64013 19.45798 25875 ft 436 kts 271°
2026-04-30 12:24 -9.63948 19.42759 26277 ft 437 kts 271°
2026-04-30 12:24 -9.63881 19.39663 26621 ft 440 kts 271°
2026-04-30 12:25 -9.63813 19.36533 26947 ft 444 kts 271°
2026-04-30 12:25 -9.63745 19.33398 27274 ft 447 kts 271°
2026-04-30 12:25 -9.63676 19.30226 27606 ft 449 kts 271°
2026-04-30 12:25 -9.63608 19.27095 27954 ft 451 kts 271°
2026-04-30 12:26 -9.63537 19.23897 28247 ft 455 kts 271°
2026-04-30 12:26 -9.63466 19.20680 28593 ft 456 kts 271°
2026-04-30 12:26 -9.63395 19.17459 28952 ft 458 kts 271°
2026-04-30 12:26 -9.63323 19.14217 29212 ft 461 kts 271°
2026-04-30 12:27 -9.63251 19.11000 29468 ft 464 kts 271°
2026-04-30 12:27 -9.63177 19.07707 29799 ft 465 kts 271°
2026-04-30 12:27 -9.63102 19.04416 30110 ft 467 kts 271°
2026-04-30 12:27 -9.63027 19.01116 30349 ft 469 kts 270°
2026-04-30 12:28 -9.62953 18.97830 30533 ft 472 kts 270°
2026-04-30 12:28 -9.62876 18.94489 30808 ft 473 kts 271°
2026-04-30 12:28 -9.62801 18.91194 31174 ft 471 kts 270°
2026-04-30 12:28 -9.62724 18.87872 31520 ft 470 kts 270°
2026-04-30 12:29 -9.62647 18.84545 31792 ft 472 kts 270°
2026-04-30 12:29 -9.62570 18.81217 32083 ft 472 kts 271°
2026-04-30 12:29 -9.62492 18.77892 32578 ft 468 kts 271°
2026-04-30 12:29 -9.62415 18.74609 33072 ft 464 kts 270°
2026-04-30 12:30 -9.62339 18.71384 33451 ft 464 kts 270°
2026-04-30 12:30 -9.62262 18.68106 33762 ft 465 kts 271°
2026-04-30 12:30 -9.62184 18.64828 34141 ft 463 kts 270°
2026-04-30 12:30 -9.62106 18.61562 34540 ft 460 kts 271°
2026-04-30 12:31 -9.62029 18.58321 34843 ft 460 kts 271°
2026-04-30 12:31 -9.61944 18.55112 35079 ft 462 kts 271°
2026-04-30 12:31 -9.61827 18.51856 35387 ft 460 kts 271°
2026-04-30 12:31 -9.61696 18.48625 35744 ft 458 kts 272°
2026-04-30 12:32 -9.61560 18.45403 36015 ft 458 kts 272°
2026-04-30 12:32 -9.61425 18.42169 36242 ft 459 kts 272°
2026-04-30 12:32 -9.61291 18.38932 36432 ft 460 kts 272°
2026-04-30 12:32 -9.61159 18.35696 36774 ft 458 kts 272°
2026-04-30 12:33 -9.61031 18.32518 37085 ft 456 kts 272°
2026-04-30 12:33 -9.60902 18.29296 37269 ft 457 kts 272°
2026-04-30 12:33 -9.60773 18.26066 37456 ft 458 kts 272°
2026-04-30 12:33 -9.60645 18.22837 37755 ft 456 kts 272°
2026-04-30 12:34 -9.60516 18.19619 37954 ft 455 kts 272°
2026-04-30 12:34 -9.60389 18.16453 37922 ft 456 kts 272°
2026-04-30 12:34 -9.60129 18.10002 37942 ft 457 kts 272°
2026-04-30 12:35 -9.59870 18.03594 37931 ft 457 kts 272°
2026-04-30 12:35 -9.59609 17.97164 37937 ft 457 kts 272°
2026-04-30 12:36 -9.59346 17.90731 37938 ft 456 kts 272°
2026-04-30 12:36 -9.59083 17.84330 37937 ft 456 kts 272°
2026-04-30 12:37 -9.58818 17.77897 37940 ft 456 kts 272°
2026-04-30 12:37 -9.58552 17.71479 37929 ft 456 kts 272°
2026-04-30 12:38 -9.58287 17.65086 37935 ft 456 kts 272°
2026-04-30 12:38 -9.58018 17.58655 37928 ft 456 kts 272°
2026-04-30 12:39 -9.57748 17.52210 37938 ft 457 kts 272°
2026-04-30 12:39 -9.57478 17.45805 37939 ft 457 kts 272°
2026-04-30 12:40 -9.57204 17.39348 37937 ft 458 kts 272°
2026-04-30 12:40 -9.56932 17.32930 37934 ft 457 kts 272°
2026-04-30 12:41 -9.56656 17.26486 37937 ft 456 kts 272°
2026-04-30 12:41 -9.56383 17.20099 37938 ft 455 kts 272°
2026-04-30 12:42 -9.56107 17.13688 37941 ft 454 kts 272°
2026-04-30 12:42 -9.55829 17.07270 37956 ft 453 kts 272°
2026-04-30 12:43 -9.55553 17.00914 37960 ft 453 kts 272°
2026-04-30 12:43 -9.55275 16.94537 37952 ft 452 kts 272°
2026-04-30 12:44 -9.54996 16.88161 37957 ft 452 kts 272°
2026-04-30 12:44 -9.54717 16.81826 37960 ft 452 kts 272°
2026-04-30 12:45 -9.54436 16.75449 37955 ft 452 kts 272°
2026-04-30 12:45 -9.54154 16.69103 37948 ft 453 kts 273°
2026-04-30 12:46 -9.53870 16.62715 37956 ft 453 kts 273°
2026-04-30 12:46 -9.53586 16.56357 37950 ft 453 kts 273°
2026-04-30 12:47 -9.53299 16.49958 37956 ft 454 kts 273°
2026-04-30 12:47 -9.53011 16.43563 37945 ft 454 kts 273°
2026-04-30 12:48 -9.52708 16.37186 37951 ft 454 kts 275°
2026-04-30 12:48 -9.51587 16.30900 37953 ft 453 kts 283°
2026-04-30 12:49 -9.50195 16.24710 37953 ft 452 kts 283°
2026-04-30 12:49 -9.48806 16.18465 37947 ft 452 kts 283°
2026-04-30 12:50 -9.47464 16.12273 37946 ft 452 kts 283°
2026-04-30 12:50 -9.46127 16.06040 37941 ft 452 kts 283°
2026-04-30 12:51 -9.44799 15.99852 37935 ft 452 kts 283°
2026-04-30 12:51 -9.43458 15.93612 37936 ft 452 kts 283°
2026-04-30 12:52 -9.42124 15.87415 37937 ft 452 kts 283°
2026-04-30 12:52 -9.40779 15.81170 37948 ft 453 kts 283°
2026-04-30 12:53 -9.39436 15.74940 37940 ft 453 kts 283°
2026-04-30 12:53 -9.38097 15.68732 37940 ft 453 kts 283°
2026-04-30 12:54 -9.36747 15.62479 37945 ft 453 kts 283°
2026-04-30 12:54 -9.35404 15.56264 37935 ft 453 kts 283°
2026-04-30 12:55 -9.34058 15.50043 37944 ft 453 kts 283°
2026-04-30 12:55 -9.32707 15.43805 37930 ft 453 kts 283°
2026-04-30 12:56 -9.31585 15.38624 37935 ft 452 kts 283°
2026-04-30 12:56 -9.30242 15.32431 37922 ft 452 kts 283°
2026-04-30 12:57 -9.28891 15.26206 37900 ft 448 kts 283°
2026-04-30 12:57 -9.28227 15.23145 37535 ft 443 kts 283°
2026-04-30 12:57 -9.27349 15.19112 36471 ft 443 kts 283°
2026-04-30 12:58 -9.26898 15.17043 35787 ft 447 kts 283°
2026-04-30 12:58 -9.26230 15.13987 34720 ft 454 kts 283°
2026-04-30 12:58 -9.25543 15.10843 33694 ft 458 kts 282°
2026-04-30 12:58 -9.24851 15.07671 32528 ft 463 kts 282°
2026-04-30 12:59 -9.24154 15.04478 31416 ft 466 kts 282°
2026-04-30 12:59 -9.23447 15.01239 30440 ft 473 kts 282°
2026-04-30 12:59 -9.22750 14.98051 30286 ft 458 kts 282°
2026-04-30 12:59 -9.22065 14.94915 29817 ft 449 kts 282°
2026-04-30 13:00 -9.21404 14.91897 29357 ft 439 kts 282°
2026-04-30 13:00 -9.20753 14.88920 28871 ft 428 kts 282°
2026-04-30 13:00 -9.20113 14.86001 28402 ft 419 kts 282°
2026-04-30 13:00 -9.19488 14.83144 27948 ft 410 kts 282°
2026-04-30 13:01 -9.18876 14.80351 27493 ft 402 kts 282°
2026-04-30 13:01 -9.18283 14.77645 27063 ft 395 kts 281°
2026-04-30 13:01 -9.17691 14.74946 26630 ft 388 kts 281°
2026-04-30 13:01 -9.17112 14.72305 26204 ft 381 kts 281°
2026-04-30 13:02 -9.16542 14.69706 25783 ft 376 kts 281°
2026-04-30 13:02 -9.15980 14.67145 25367 ft 370 kts 281°
2026-04-30 13:02 -9.15425 14.64614 24948 ft 365 kts 281°
2026-04-30 13:02 -9.14878 14.62121 24519 ft 361 kts 281°
2026-04-30 13:03 -9.14342 14.59684 24107 ft 357 kts 281°
2026-04-30 13:03 -9.13806 14.57243 23698 ft 353 kts 280°
2026-04-30 13:03 -9.13225 14.54844 23324 ft 347 kts 283°
2026-04-30 13:03 -9.12561 14.52507 22922 ft 344 kts 284°
2026-04-30 13:04 -9.11879 14.50222 22517 ft 342 kts 284°
2026-04-30 13:04 -9.11178 14.47896 22104 ft 340 kts 284°
2026-04-30 13:04 -9.10500 14.45638 21707 ft 338 kts 284°
2026-04-30 13:04 -9.09822 14.43365 21315 ft 337 kts 284°
2026-04-30 13:05 -9.09150 14.41101 20908 ft 335 kts 284°
2026-04-30 13:05 -9.08481 14.38840 20509 ft 334 kts 284°
2026-04-30 13:05 -9.07817 14.36588 20107 ft 333 kts 284°
2026-04-30 13:06 -9.06504 14.32130 19293 ft 332 kts 284°
2026-04-30 13:06 -9.05844 14.29887 18882 ft 331 kts 284°
2026-04-30 13:06 -9.05186 14.27649 18473 ft 331 kts 284°
2026-04-30 13:06 -9.04530 14.25417 18036 ft 331 kts 284°
2026-04-30 13:07 -9.03881 14.23208 17601 ft 330 kts 284°
2026-04-30 13:07 -9.03229 14.20989 17172 ft 328 kts 285°
2026-04-30 13:07 -9.02580 14.18782 16758 ft 326 kts 285°
2026-04-30 13:07 -9.01931 14.16577 16350 ft 325 kts 285°
2026-04-30 13:08 -9.01286 14.14383 15947 ft 323 kts 285°
2026-04-30 13:08 -9.00647 14.12213 15540 ft 322 kts 286°
2026-04-30 13:08 -9.00017 14.10070 15148 ft 321 kts 286°
2026-04-30 13:08 -8.99379 14.07905 14722 ft 320 kts 287°
2026-04-30 13:09 -8.98743 14.05746 14313 ft 320 kts 287°
2026-04-30 13:09 -8.98108 14.03590 13899 ft 320 kts 288°
2026-04-30 13:09 -8.97473 14.01436 13457 ft 320 kts 288°
2026-04-30 13:09 -8.96838 13.99282 13035 ft 318 kts 288°
2026-04-30 13:10 -8.96206 13.97140 12612 ft 316 kts 288°
2026-04-30 13:10 -8.95577 13.95009 12199 ft 315 kts 288°
2026-04-30 13:10 -8.94952 13.92889 11789 ft 313 kts 288°
2026-04-30 13:10 -8.94338 13.90807 11389 ft 312 kts 288°
2026-04-30 13:11 -8.93718 13.88707 10986 ft 310 kts 288°
2026-04-30 13:11 -8.93099 13.86612 10562 ft 310 kts 288°
2026-04-30 13:11 -8.92483 13.84523 10173 ft 309 kts 288°
2026-04-30 13:11 -8.91879 13.82479 10048 ft 297 kts 289°
2026-04-30 13:12 -8.91297 13.80518 9785 ft 288 kts 289°
2026-04-30 13:12 -8.90733 13.78614 9435 ft 286 kts 289°
2026-04-30 13:12 -8.90161 13.76683 9087 ft 286 kts 289°
2026-04-30 13:13 -8.89029 13.72854 8392 ft 279 kts 289°
2026-04-30 13:13 -8.88475 13.70990 8042 ft 274 kts 289°
2026-04-30 13:13 -8.87405 13.67378 7374 ft 265 kts 289°
2026-04-30 13:14 -8.86879 13.65601 7040 ft 261 kts 289°
2026-04-30 13:14 -8.86361 13.63851 6712 ft 258 kts 289°
2026-04-30 13:14 -8.85339 13.60384 5936 ft 258 kts 289°
2026-04-30 13:15 -8.84823 13.58645 5508 ft 259 kts 289°
2026-04-30 13:15 -8.83794 13.55156 4692 ft 258 kts 288°
2026-04-30 13:15 -8.83286 13.53461 4411 ft 252 kts 291°
2026-04-30 13:16 -8.82411 13.51968 4106 ft 244 kts 310°
2026-04-30 13:16 -8.81337 13.50679 3841 ft 233 kts 312°
2026-04-30 13:16 -8.80290 13.49462 3539 ft 224 kts 313°
2026-04-30 13:17 -8.78320 13.47162 3032 ft 205 kts 312°
2026-04-30 13:17 -8.77452 13.46110 2952 ft 191 kts 302°
2026-04-30 13:17 -8.76306 13.43788 2747 ft 186 kts 271°
2026-04-30 13:18 -8.76689 13.42597 2731 ft 177 kts 238°
2026-04-30 13:18 -8.77907 13.40382 2573 ft 182 kts 242°
2026-04-30 13:18 -8.78476 13.39248 2434 ft 187 kts 242°
2026-04-30 13:19 -8.79046 13.38056 2224 ft 182 kts 244°
2026-04-30 13:19 -8.79541 13.36972 2153 ft 159 kts 244°
2026-04-30 13:19 -8.79966 13.36011 2054 ft 139 kts 244°
2026-04-30 13:19 -8.80398 13.35022 2110 ft 166 kts 246°
2026-04-30 13:20 -8.80857 13.33956 2053 ft 159 kts 246°
2026-04-30 13:20 -8.81273 13.32976 1779 ft 150 kts 247°
2026-04-30 13:20 -8.81676 13.32016 1415 ft 145 kts 247°
2026-04-30 13:20 -8.82046 13.31119 1191 ft 133 kts 250°
2026-04-30 13:21 -8.82383 13.30213 1047 ft 139 kts 248°
2026-04-30 13:21 -8.82763 13.29338 898 ft 132 kts 250°
2026-04-30 13:21 -8.83124 13.28505 789 ft 132 kts 248°
2026-04-30 13:22 -8.83865 13.26695 732 ft 140 kts 248°
2026-04-30 13:22 -8.84243 13.25800 558 ft 136 kts 251°
2026-04-30 13:22 -8.84916 13.24118 259 ft 118 kts 249°
2026-04-30 13:23 -8.85170 13.23496 257 ft 74 kts 249°
2026-04-30 13:23 -8.85313 13.23093 260 ft 9 kts 301°
2026-04-30 13:24 -8.85196 13.23077 259 ft 9 kts
2026-04-30 13:24 -8.85098 13.23124 259 ft 8 kts 55°
2026-04-30 13:25 -8.85052 13.23223 258 ft 8 kts 69°
2026-04-30 13:25 -8.85000 13.23311 258 ft 7 kts 68°
2026-04-30 13:26 -8.84940 13.23460 258 ft 10 kts 71°
2026-04-30 13:26 -8.84895 13.23606 258 ft 12 kts 66°
2026-04-30 13:27 -8.84822 13.23778 258 ft 14 kts 67°
2026-04-30 13:28 -8.84694 13.24085 258 ft 17 kts 66°
2026-04-30 13:28 -8.84632 13.24226 258 ft 6 kts 55°
2026-04-30 13:28 -8.84607 13.24221 258 ft 4 kts 330°
2026-04-30 13:29 -8.84579 13.24208 258 ft 0 kts 336°